Погода Жигалово

Погода Жигалово : погода сейчас, прогноз погоды и архив. Всё, что Вы хотите узнать о погоде Жигалово!

Хотите узнать прогноз погоды Жигалово? Тогда Вам сюда: Погода Жигалово

Поиск расширенной информации на нашем сайте:

Другие новости

Новости СМИ2

Главная страница сайта

Новости сайта

03.07.2017

Напоминаем, что на нашем специализированном сайте Метеоцентр.Азия вы можете получить высокодетализированные автоматические прогнозы погоды по пунктам России, СНГ и мира в авиационном формате (включающие направление и скорость ветра, видимость, явления погоды, количество и форму облачности, нижнюю и верхнюю границу облачности).


Погода Жигалово - сегодня

Время (UTC), дата Ветер
(°,м/с) 
Видим.   Явления Облачность Т
(°С)
Тd
(°С)
f(%) Тe
(°С)
Pmin
(гПа)
dP
(гПа)
Po
(мм)
O2
(г/м3)
Тmin Tmax R s Состояние
почвы
03 20.04.18 300 (СЗ) 20000 м    1/1 1000 м 
[Cu hum]
+4.1 -12.3 29 +5  1022.6  -0.9  729  290           
06 20.04.18 330 (СЗ) 20000 м    6/1 1000 м средняя, верхняя 
[Cu hum|Ac trans|Ci fib]
+7.8 -10.8 25 +8  1019.8  -2.1  727  286           
09 20.04.18 350 (С) 20000 м    8/1 1000 м верхняя 
[Cu hum|Ci fib]
+9.9 -10.5 23 +11  1017.8  -1.5  726  283           
12 20.04.18 080 (В) 20000 м    3/1 1000 м верхняя 
[Cu hum|Ci fib]
+6.4 -7.8 35 +7  1018.6  0.1  726  287    +10.5       
15 20.04.18 240 (ЮЗ) н/о    3/0 верхняя 
[Ci fib]
+0.5 -6.3 60 +1  1021.5  1.7  727  293           
18 20.04.18 тихо ()   н/о    3/0 верхняя 
[Ci fib]
-1 -5.3 73 -1  1022.9  1.1  728  295           
21 20.04.18 тихо ()   н/о    10/6 600 м кучево-дожд., верхняя 
[Cb cap|Ci fib]
-2.2 -5.4 79 -2  1024.9  1.7  729  297           
00 21.04.18 тихо ()   20000 м    3/1 600 м верхняя 
[Sc|Ci fib]
+1.5 -6.1 57 +2  1025.4  1.1  730  293  -2.4      мокрый или
старый снег
10-40% 
03 21.04.18 тихо ()   20000 м    1/0 верхняя 
[Ci fib]
+10 -10.1 23 +10  1023.8  730  285           
06 21.04.18 250 (З) 20000 м    ясно 
+12.7 -8.8 21 +13  1022.1  -1.2  729  282           
09 21.04.18 260 (З) 20000 м    ясно 
+14.6 -7.9 20 +15  1020.4  -1.3  728  279           
12 21.04.18 230 (ЮЗ) 20000 м    ясно 
+11.4 -6.7 27 +12  1021.3  0.3  729  282    +14.9       
15 21.04.18 тихо ()   н/о    ясно 
+0.8 -5.1 65 +1  1025.5  2.2  730  294           
18 21.04.18 тихо ()   н/о    ясно 
-2.7 -5.6 80 -3  1027  0.8  731  298           
21 21.04.18 тихо ()   н/о    4/0 верхняя 
[Ci fib]
-4.1 -6.2 85 -4  1027.9  0.5  731  300           
00 22.04.18 030 (СВ) 20000 м    10/0 верхняя 
[Cs]
-1.2 -4.4 79 -1  1027.6  0.4  731  296  -4.3      мокрый или
старый снег
10-40% 
03 22.04.18 060 (СВ) 20000 м    10/0 верхняя 
[Cs]
+8.2 -8.2 30 +9  1023.9  -1.9  730  286           
06 22.04.18 320 (СЗ) 20000 м    6/0 верхняя 
[Ci fib]
+16.1 -2.3 28 +17  1019.1  -3.2  728  277           
09 22.04.18 020 (С) 20000 м    3/0 верхняя 
[Ci fib]
+18.2 -5.5 19 +20  1015.5  -3.1  725  274           
12 22.04.18 250 (З) 20000 м    3/0 верхняя 
[Ci fib]
+14.5 -7.5 21 +16  1015.4  -0.7  725  278    +19.4       
15 22.04.18 290 (З) н/о    3/0 верхняя 
[Ci fib]
+1.3 -3.8 69 +2  1018.9  726  291           
18 22.04.18 тихо ()   н/о    3/0 верхняя 
[Ci fib]
-2 -5.1 79 -2  1019.1  -0.4  725  295           
21 22.04.18 040 (СВ) н/о    4/0 верхняя 
[Ci fib]
-2.3 -5 82 -2  1019.2  725  295           
00 23.04.18 080 (В) 20000 м    10/0 верхняя 
[Cs]
+1.2 -4 68 +2  1019.4  0.9  726  292  -2.7         
03 23.04.18 050 (СВ) 20000 м    10/4 1000 м средняя, верхняя 
[Sc|Ac As|Ci fib]
+10 -3.4 39 +11  1018  0.2  726  283           
Время (UTC), дата Ветер
(°,м/с) 
Видим.   Явления Облачность Т
(°С)
Тd
(°С)
f(%) Тe
(°С)
Pmin
(гПа)
dP
(гПа)
Po
(мм)
O2
(г/м3)
Тmin Tmax R s Состояние
почвы

Для получения пояснительной информации подведите курсор к названию столбца.

ПОГОДА Жигалово - архив

Всё, что Вы хотите узнать о погоде Жигалово - удобно и подробно!

Выберите нужную дату (начиная с 1 января 2015* года) и нажмите кнопку "Найти".
Будут отображены архивные сводки погоды по пункту Жигалово, начиная с указанной даты.


Отображать данные в формате CSV (для использования в таблицах Excel)


Внимание! Наш архив погоды предназначен исключительно для личного некоммерческого использования в познавательных целях. Если Вам необходимы официальные справки о состоянии погоды (для производственных, юридических, коммерческих и т.п. целей), обращайтесь в органы Росгидромета.

*Примечание: данная дата относится к архиву по метеостанциям СССР (Россия, СНГ, Балтия).
Архив по метеостанциям Зарубежной Европы и Азии (кроме Китая) хранится 10 дней, по другим регионам земного шара (Китай, Африка, Америка, Австралия, Океания) - 1 день.

Жигалово - район местоположения метеостанции


Название, широта, долгота, высота метеостанции:
Жигалово 54.8°ш. 105.2°д. 426 м над ур. моря [Российская Федерация]

Дополнительная информация

В oтличие oт бoльшинства пoгoдных сайтoв мы публикуем пoдрoбную метеoинфoрмацию в детальнoм прoфессиoнальнoм фoрмате.

Характеристики температуры и влажнoсти вoздуха измеряются на высoте 2 м в тени вдали oт зданий и деревьев.
Скoрoсть ветра измеряется на высoте 10 м (на урoвне рoста челoвека скoрoсть ветра ниже в 1.5-2 раза). Если метеoстанция нахoдится в гoрoде или в лесу, тo скoрoсть ветра занижена на 2-4 м/с пo сравнению с oткрытым местoм. Скoрoсть ветра над акватoриями крупных рек и oзёр, а также на вершинах хoлмoв на 2-5 м/с выше, чем в oбычных услoвиях.
Атмoсфернoе давление в разных тoчках местнoсти мoжет значительнo oтличаться oт давления на метеoстанции, в зависимoсти oт услoвий рельефа (при пoдъёме на 10 м давление пoнижается примернo на 1 мм рт.ст.).